TimeAKST,TemperatureF,Dew PointF,Humidity,Sea Level PressureIn,VisibilityMPH,Wind Direction,Wind SpeedMPH,Gust SpeedMPH,PrecipitationIn,Events,Conditions,WindDirDegrees,DateUTC
12:16 AM,-20.2,-9999,N/A,30.11,10.0,NNE,4.6,-,N/A,,Clear,20,2012-11-20 09:16:00
12:36 AM,-20.2,-27.4,69,30.11,10.0,NNE,9.2,-,N/A,,Clear,20,2012-11-20 09:36:00
12:56 AM,-18.4,-27.4,63,30.10,10.0,NNE,11.5,-,N/A,,Clear,20,2012-11-20 09:56:00
1:16 AM,-20.2,-29.2,63,30.11,10.0,NNE,9.2,-,N/A,,Clear,20,2012-11-20 10:16:00
1:36 AM,-18.4,-29.2,58,30.11,10.0,North,6.9,-,N/A,,Clear,360,2012-11-20 10:36:00
1:56 AM,-20.2,-29.2,63,30.11,10.0,North,5.8,-,N/A,,Clear,360,2012-11-20 10:56:00
2:16 AM,-20.2,-29.2,63,30.10,10.0,North,9.2,-,N/A,,Clear,10,2012-11-20 11:16:00
2:36 AM,-20.2,-9999,N/A,30.09,10.0,North,9.2,-,N/A,,Clear,10,2012-11-20 11:36:00
2:56 AM,-22.0,-9999,N/A,30.09,10.0,NNE,8.1,-,N/A,,Clear,30,2012-11-20 11:56:00
3:16 AM,-20.2,-9999,N/A,30.09,10.0,NNE,4.6,-,N/A,,Clear,20,2012-11-20 12:16:00
3:36 AM,-20.2,-29.2,63,30.08,10.0,NNE,5.8,-,N/A,,Clear,20,2012-11-20 12:36:00
3:56 AM,-20.2,-27.4,69,30.08,10.0,North,4.6,-,N/A,,Clear,360,2012-11-20 12:56:00
4:16 AM,-20.2,-27.4,69,30.07,10.0,NNE,4.6,-,N/A,,Clear,20,2012-11-20 13:16:00
4:36 AM,-18.4,-27.4,63,30.07,10.0,NNE,4.6,-,N/A,,Clear,30,2012-11-20 13:36:00
4:56 AM,-18.4,-9999,N/A,30.07,10.0,NNE,3.5,-,N/A,,Clear,20,2012-11-20 13:56:00
5:16 AM,-20.2,-29.2,63,30.07,10.0,North,4.6,-,N/A,,Clear,360,2012-11-20 14:16:00
5:36 AM,-20.2,-29.2,63,30.07,10.0,NNW,4.6,-,N/A,,Clear,340,2012-11-20 14:36:00
5:56 AM,-18.4,-29.2,58,30.07,10.0,North,4.6,-,N/A,,Clear,10,2012-11-20 14:56:00
6:16 AM,-18.4,-29.2,58,30.06,10.0,NNE,3.5,-,N/A,,Clear,20,2012-11-20 15:16:00
6:36 AM,-20.2,-9999,N/A,30.06,10.0,North,3.5,-,N/A,,Clear,360,2012-11-20 15:36:00
6:56 AM,-18.4,-27.4,63,30.05,10.0,North,4.6,-,N/A,,Clear,350,2012-11-20 15:56:00
7:16 AM,-20.2,-29.2,63,30.04,10.0,Calm,Calm,-,N/A,,Clear,0,2012-11-20 16:16:00
7:36 AM,-18.4,-25.6,70,30.04,10.0,Calm,Calm,-,N/A,,Clear,0,2012-11-20 16:36:00
7:56 AM,-18.4,-9999,N/A,30.03,10.0,North,3.5,-,N/A,,Clear,360,2012-11-20 16:56:00
8:16 AM,-18.4,-27.4,63,30.04,10.0,Calm,Calm,-,N/A,,Clear,0,2012-11-20 17:16:00
8:36 AM,-18.4,-9999,N/A,30.03,10.0,NE,3.5,-,N/A,,Clear,40,2012-11-20 17:36:00
8:56 AM,-18.4,-27.4,63,30.03,10.0,North,5.8,-,N/A,,Clear,360,2012-11-20 17:56:00
9:16 AM,-18.4,-27.4,63,30.04,10.0,North,3.5,-,N/A,,Clear,10,2012-11-20 18:16:00
9:36 AM,-20.2,-9999,N/A,30.04,10.0,North,4.6,-,N/A,,Clear,360,2012-11-20 18:36:00
9:56 AM,-20.2,-29.2,63,30.03,9.0,Calm,Calm,-,N/A,,Clear,0,2012-11-20 18:56:00
10:16 AM,-20.2,-29.2,63,30.03,7.0,Calm,Calm,-,N/A,,Clear,0,2012-11-20 19:16:00
10:36 AM,-20.2,-9999,N/A,30.02,10.0,NNE,3.5,-,N/A,,Clear,30,2012-11-20 19:36:00
11:16 AM,-20.2,-29.2,63,30.01,10.0,Calm,Calm,-,N/A,,Clear,0,2012-11-20 20:16:00
11:36 AM,-20.2,-27.4,69,30.01,10.0,Calm,Calm,-,N/A,,Clear,0,2012-11-20 20:36:00
11:56 AM,-22.0,-9999,N/A,30.02,10.0,South,3.5,-,N/A,,Clear,190,2012-11-20 20:56:00
12:16 PM,-23.8,-9999,N/A,30.01,5.0,Calm,Calm,-,N/A,,Clear,0,2012-11-20 21:16:00
12:36 PM,-22.0,-9999,N/A,30.00,6.0,Calm,Calm,-,N/A,,Clear,0,2012-11-20 21:36:00
12:56 PM,-23.8,-9999,N/A,30.00,9.0,NNE,3.5,-,N/A,,Clear,30,2012-11-20 21:56:00
1:16 PM,-20.2,-9999,N/A,29.99,10.0,Calm,Calm,-,N/A,,Clear,0,2012-11-20 22:16:00
1:36 PM,-18.4,-27.4,63,29.99,10.0,Calm,Calm,-,N/A,,Clear,0,2012-11-20 22:36:00
1:56 PM,-20.2,-29.2,63,29.99,10.0,Calm,Calm,-,N/A,,Clear,0,2012-11-20 22:56:00
2:16 PM,-20.2,-9999,N/A,29.98,10.0,Calm,Calm,-,N/A,,Clear,0,2012-11-20 23:16:00
2:36 PM,-22.0,-9999,N/A,29.98,9.0,South,3.5,-,N/A,,Clear,190,2012-11-20 23:36:00
2:56 PM,-20.2,-9999,N/A,29.98,10.0,Calm,Calm,-,N/A,,Clear,0,2012-11-20 23:56:00
3:16 PM,-20.2,-9999,N/A,29.98,5.0,Calm,Calm,-,N/A,,Clear,0,2012-11-21 00:16:00
3:36 PM,-22.0,-9999,N/A,29.97,10.0,Calm,Calm,-,N/A,,Clear,0,2012-11-21 00:36:00
3:56 PM,-18.4,-29.2,58,29.97,9.0,Calm,Calm,-,N/A,,Clear,0,2012-11-21 00:56:00
4:16 PM,-20.2,-9999,N/A,29.97,10.0,Calm,Calm,-,N/A,,Clear,0,2012-11-21 01:16:00
4:36 PM,-20.2,-29.2,63,29.97,10.0,Calm,Calm,-,N/A,,Clear,0,2012-11-21 01:36:00
4:56 PM,-18.4,-27.4,63,29.97,10.0,North,3.5,-,N/A,,Clear,360,2012-11-21 01:56:00
5:16 PM,-18.4,-27.4,63,29.97,10.0,Calm,Calm,-,N/A,,Clear,0,2012-11-21 02:16:00
5:36 PM,-20.2,-9999,N/A,29.97,10.0,Calm,Calm,-,N/A,,Clear,0,2012-11-21 02:36:00
5:56 PM,-18.4,-27.4,63,29.97,9.0,North,6.9,-,N/A,,Clear,360,2012-11-21 02:56:00
6:16 PM,-14.8,-22.0,70,29.97,10.0,NNW,4.6,-,N/A,,Clear,340,2012-11-21 03:16:00
6:36 PM,-16.6,-23.8,70,29.97,10.0,Calm,Calm,-,N/A,,Clear,0,2012-11-21 03:36:00
6:56 PM,-20.2,-9999,N/A,29.97,8.0,North,3.5,-,N/A,,Clear,10,2012-11-21 03:56:00
7:16 PM,-20.2,-9999,N/A,29.98,10.0,North,3.5,-,N/A,,Clear,10,2012-11-21 04:16:00
7:36 PM,-18.4,-9999,N/A,29.98,10.0,Calm,Calm,-,N/A,,Clear,0,2012-11-21 04:36:00
7:56 PM,-18.4,-27.4,63,29.97,10.0,Calm,Calm,-,N/A,,Clear,0,2012-11-21 04:56:00
8:16 PM,-18.4,-27.4,63,29.97,10.0,North,3.5,-,N/A,,Clear,350,2012-11-21 05:16:00
8:36 PM,-16.6,-25.6,64,29.97,10.0,North,4.6,-,N/A,,Clear,350,2012-11-21 05:36:00
8:56 PM,-16.6,-25.6,64,29.97,10.0,NNW,4.6,-,N/A,,Clear,340,2012-11-21 05:56:00
9:16 PM,-16.6,-27.4,58,29.97,10.0,North,4.6,-,N/A,,Clear,10,2012-11-21 06:16:00
9:36 PM,-18.4,-29.2,58,29.97,10.0,North,4.6,-,N/A,,Clear,350,2012-11-21 06:36:00
9:56 PM,-20.2,-9999,N/A,29.97,10.0,North,4.6,-,N/A,,Clear,350,2012-11-21 06:56:00
10:16 PM,-18.4,-29.2,58,29.98,10.0,North,4.6,-,N/A,,Clear,360,2012-11-21 07:16:00
10:36 PM,-23.8,-9999,N/A,29.98,10.0,North,8.1,-,N/A,,Clear,10,2012-11-21 07:36:00
10:56 PM,-18.4,-29.2,58,29.98,10.0,North,4.6,-,N/A,,Clear,350,2012-11-21 07:56:00
11:16 PM,-18.4,-27.4,63,29.99,10.0,North,5.8,-,N/A,,Clear,360,2012-11-21 08:16:00
11:36 PM,-20.2,-29.2,63,29.98,10.0,NNE,6.9,-,N/A,,Clear,20,2012-11-21 08:36:00
11:56 PM,-18.4,-29.2,58,29.99,10.0,North,5.8,-,N/A,,Clear,360,2012-11-21 08:56:00